Regional Weather Roundup
Issued by NWS Northern Indiana

Home | Current Version | Previous Version | Graphics & Text | Print | Product List | Glossary On
Versions: 1 2 3 4 5 6 7 8 9 10 11 12 13 14 15 16 17 18 19 20 21 22 23 24 25 26 27 28 29 30 31 32 33 34 35 36 37 38 39 40 41 42 43 44 45 46 47 48 49 50
000
ASUS43 KIWX 010310
RWRIWX

KIWX WEATHER ROUNDUP
NATIONAL WEATHER SERVICE NORTHERN INDIANA
1100 PM EDT MON AUG 31 2015

NOTE: "FAIR" INDICATES FEW OR NO CLOUDS BELOW 12,000 FEET WITH NO
SIGNIFICANT WEATHER AND/OR OBSTRUCTIONS TO VISIBILITY.

* THESE STATIONS ARE NOT UNDER NWS QUALITY CONTROL. THEY ALSO MAY NOT
  REPORT WEATHER SUCH AS PRECIPITATION OR FOG.

INZ001>027-010400-
NORTHERN INDIANA

CITY           SKY/WX    TMP DP  RH WIND       PRES   REMARKS
GARY*          CLEAR     70  66  88 CALM      30.05  FOG
VALPARAISO     CLEAR     72  69  90 NE3       30.07R FOG
MICHIGAN CITY* FOG       70  70 100 CALM      30.06S VSB 1
LAPORTE*       MOCLDY   N/A N/A N/A CALM      30.08R FOG
KNOX*          MOCLDY    72  72 100 S3        30.06R
SOUTH BEND     CLEAR     71  68  90 CALM      30.07R
GOSHEN         PTCLDY    71  68  90 CALM      30.07R
MONTICELLO*    CLEAR     73  71  92 S3        30.06S
LOGANSPORT*    CLEAR     70  63  78 S5        30.09R
ROCHESTER*     CLEAR     77  70  78 SW3       30.08R
WARSAW*        MOCLDY    70  70 100 CALM      30.08R
ANGOLA*        MOCLDY    70  61  73 CALM      30.09R VSB 3/4
FORT WAYNE     PTCLDY    72  68  87 S7        30.09R
HUNTINGTON*    MOCLDY    74  65  74 SW8       30.09R
PERU/GRISSOM   PTCLDY    72  68  87 SW5       30.08R
MARION*        MOCLDY    71  63  76 E5        30.11R

$$
INZ028>050-010400-
CENTRAL INDIANA

CITY           SKY/WX    TMP DP  RH WIND       PRES   REMARKS
LAFAYETTE      CLEAR     71  68  90 CALM      30.07R
KOKOMO*        CLEAR     72  61  68 S5        30.09R
MUNCIE*        PTCLDY    71  67  87 NW3       30.11R
INDIANAPOLIS   CLEAR     75  67  76 S6        30.09R

$$
MIZ043>046-050>051-056>058-064>065-071>073-077>080-010400-
SOUTHWEST LOWER MICHIGAN

CITY           SKY/WX    TMP DP  RH WIND       PRES   REMARKS
BATTLE CREEK   CLEAR     70  67  90 CALM      30.09R
BENTON HARBOR  CLEAR     68  66  93 CALM      30.05R FOG
COLDWATER*     CLEAR     66  66 100 CALM      30.08S FOG
HILLSDALE*     CLEAR     67  67 100 CALM      30.10R FOG
HOLLAND        CLEAR     66  63  90 CALM      30.06S FOG
GRAND RAPIDS   CLEAR     67  65  93 S3        30.07R FOG
KALAMAZOO      CLEAR     68  65  90 CALM      30.08R
STURGIS*       CLEAR     70  68  94 CALM      30.08R
THREE RIVERS*  FAIR      69  68  98 CALM      30.08R FOG

$$
OHZ001>008-015>018-024>025-010400-
NORTHWEST OHIO

CITY           SKY/WX    TMP DP  RH WIND       PRES   REMARKS
WAUSEON*       FAIR      70  70 100 CALM      30.08R FOG
DEFIANCE       MOCLDY    74  70  87 CALM      30.08R
FINDLAY        CLEAR     75  69  81 S3        30.08R
TOLEDO EXPRESS CLEAR     71  70  96 CALM      30.07R FOG
TOLEDO METCALF CLEAR     74  67  78 CALM      30.08R
LIMA           MOCLDY    73  69  87 CALM      30.10R

$$
AND FOR LAKE MICHIGAN COASTAL AND OPEN LAKE BUOY OBSERVATIONS

STATION/POSITION TEMP    WIND        PRES    VSBY  WAVE
                 AIR SEA DIR/SP/G                  HT/PER
                 (F)     (DEG/KT/KT) (MB)    (MI)  (FT/S)
CALUMET HARBOR    74     110/  3/  5   N/A
MICHIGAN CITY     76     120/  5/  5   N/A
BURNS HARBOR      79     150/  4/  5 1017.6R
SAINT JOSEPH      72     130/  1/  3 1018.6R
SOUTH LAKE BUOY   70 70  130/  6/  6 1016.9
4 MI NW BRIDGMAN  74 72  180/  6/  8   N/A           0
MICHIGAN CITY     74 72  170/  4/  4   N/A           0

$$
&&


USA.gov is the U.S. government's official web portal to all federal, state and local government web resources and services.